This is the latest recevied weather packets stored in our database for station/object N7NIP. If no packets are shown the sender has not sent any weather packets the latest 1 day(s).
| Time | Temp. | Humidity | Pressure | Rain* | Wind** | Luminosity | Snow |
|---|---|---|---|---|---|---|---|
| 1778024805 | 16.11° C | 73% | 1029.7 hPa | 0 mm | 0 m/s | 296 W/m² | - |
| 1778024502 | 16.11° C | 75% | 1029.8 hPa | 0 mm | 0.89 m/s, 221° | 334 W/m² | - |
| 1778024199 | 16.11° C | 74% | 1030 hPa | 0 mm | 0.45 m/s, 164° | 265 W/m² | - |
| 1778023897 | 16.11° C | 76% | 1029.8 hPa | 0 mm | 0 m/s | 217 W/m² | - |
| 1778023594 | 15.56° C | 75% | 1030 hPa | 0 mm | 0.89 m/s, 115° | 211 W/m² | - |
| 1778023292 | 15.56° C | 76% | 1029.8 hPa | 0 mm | 0 m/s | 208 W/m² | - |
| 1778022988 | 16.11° C | 76% | 1030.1 hPa | 0 mm | 0.45 m/s, 199° | 198 W/m² | - |
| 1778022687 | 15.56° C | 76% | 1030 hPa | 0 mm | 1.34 m/s, 116° | 200 W/m² | - |
| 1778022385 | 15.56° C | 77% | 1030 hPa | 0 mm | 0 m/s | 208 W/m² | - |
| 1778022080 | 15.56° C | 76% | 1030.3 hPa | 0 mm | 1.34 m/s, 11° | 223 W/m² | - |
| 1778021777 | 15.56° C | 77% | 1030.1 hPa | 0 mm | 0.89 m/s, 85° | 231 W/m² | - |
| 1778021474 | 15.56° C | 75% | 1030.2 hPa | 0 mm | 0.45 m/s, 125° | 284 W/m² | - |
| 1778021170 | 15.56° C | 77% | 1030.1 hPa | 0 mm | 1.79 m/s, 136° | 287 W/m² | - |
| 1778020868 | 15.56° C | 76% | 1030.3 hPa | 0 mm | 1.34 m/s, 80° | 228 W/m² | - |
| 1778020565 | 15.56° C | 76% | 1030.3 hPa | 0 mm | 0.89 m/s, 60° | 212 W/m² | - |
| 1778020261 | 15.56° C | 76% | 1030.2 hPa | 0 mm | 0.45 m/s, 115° | 221 W/m² | - |
| 1778019957 | 15.56° C | 77% | 1030.2 hPa | 0 mm | 0.89 m/s, 148° | 239 W/m² | - |
| 1778019654 | 15.56° C | 77% | 1030.2 hPa | 0 mm | 0.45 m/s, 234° | 251 W/m² | - |
| 1778019351 | 15.56° C | 76% | 1030.5 hPa | 0 mm | 0 m/s | 241 W/m² | - |
| 1778019047 | 15° C | 77% | 1030.4 hPa | 0 mm | 0 m/s | 229 W/m² | - |
| 1778018745 | 15.56° C | 77% | 1030.6 hPa | 0 mm | 1.34 m/s, 170° | 219 W/m² | - |
| 1778018442 | 15.56° C | 79% | 1030.4 hPa | 0 mm | 0.89 m/s, 73° | 230 W/m² | - |
| 1778018140 | 15° C | 77% | 1030.3 hPa | 0 mm | 0.89 m/s, 64° | 247 W/m² | - |
| 1778017838 | 15° C | 77% | 1030.4 hPa | 0 mm | 0 m/s | 231 W/m² | - |
| 1778017536 | 15° C | 78% | 1030.5 hPa | 0 mm | 1.34 m/s, 119° | 221 W/m² | - |
* Rain latest hour (hover to see other rain measurements)
** Current wind speed in m/s (hover to see current wind gust speed)